Time,TemperatureF,DewpointF,PressureIn,WindDirection,WindDirectionDegrees,WindSpeedMPH,WindSpeedGustMPH,Humidity,HourlyPrecipIn,Conditions,Clouds,dailyrainin,SoftwareType,DateUTC
2013-03-21 00:05:00,18.9,11.0,30.02,West,259,4.0,4.0,71,0.00,,,0.00,Wunderground v.1.15,2013-03-21 04:05:00,
2013-03-21 00:15:00,18.7,11.2,30.02,WSW,245,4.0,4.0,72,0.00,,,0.00,Wunderground v.1.15,2013-03-21 04:15:00,
2013-03-21 00:20:00,18.6,11.4,30.02,WSW,254,3.0,3.0,73,0.00,,,0.00,Wunderground v.1.15,2013-03-21 04:20:00,
2013-03-21 00:25:00,18.5,11.3,30.02,West,280,3.0,5.0,73,0.00,,,0.00,Wunderground v.1.15,2013-03-21 04:25:00,
2013-03-21 00:30:00,18.4,11.2,30.01,West,260,3.0,4.0,73,0.00,,,0.00,Wunderground v.1.15,2013-03-21 04:30:00,
2013-03-21 00:35:00,18.4,11.2,30.01,SW,230,5.0,5.0,73,0.00,,,0.00,Wunderground v.1.15,2013-03-21 04:35:00,
2013-03-21 00:45:00,18.3,11.1,30.01,West,275,3.0,5.0,73,0.00,,,0.00,Wunderground v.1.15,2013-03-21 04:45:00,
2013-03-21 00:50:00,18.2,11.0,30.01,SW,220,3.0,3.0,73,0.00,,,0.00,Wunderground v.1.15,2013-03-21 04:50:00,
2013-03-21 01:00:00,18.1,11.2,30.01,WSW,249,3.0,5.0,74,0.00,,,0.00,Wunderground v.1.15,2013-03-21 05:00:00,
2013-03-21 01:10:00,18.0,11.1,30.01,West,277,4.0,6.0,74,0.00,,,0.00,Wunderground v.1.15,2013-03-21 05:10:00,
2013-03-21 01:20:00,17.8,10.9,30.01,West,268,4.0,4.0,74,0.00,,,0.00,Wunderground v.1.15,2013-03-21 05:20:00,
2013-03-21 01:30:00,17.7,11.1,30.01,WNW,288,2.0,7.0,75,0.00,,,0.00,Wunderground v.1.15,2013-03-21 05:30:00,
2013-03-21 01:35:00,17.6,11.0,30.01,West,264,3.0,7.0,75,0.00,,,0.00,Wunderground v.1.15,2013-03-21 05:35:00,
2013-03-21 01:45:00,17.4,11.1,30.01,West,265,3.0,3.0,76,0.00,,,0.00,Wunderground v.1.15,2013-03-21 05:45:00,
2013-03-21 01:55:00,17.3,11.0,30.01,WSW,248,3.0,4.0,76,0.00,,,0.00,Wunderground v.1.15,2013-03-21 05:55:00,
2013-03-21 02:00:00,17.3,11.0,30.01,WSW,255,3.0,3.0,76,0.00,,,0.00,Wunderground v.1.15,2013-03-21 06:00:00,
2013-03-21 02:05:00,17.2,11.2,30.00,SW,228,2.0,3.0,77,0.00,,,0.00,Wunderground v.1.15,2013-03-21 06:05:00,
2013-03-21 02:15:00,17.1,11.1,30.00,West,262,2.0,3.0,77,0.00,,,0.00,Wunderground v.1.15,2013-03-21 06:15:00,
2013-03-21 02:25:00,16.9,11.2,30.00,West,266,2.0,3.0,78,0.00,,,0.00,Wunderground v.1.15,2013-03-21 06:25:00,
2013-03-21 02:30:00,16.8,11.1,30.00,WSW,257,2.0,2.0,78,0.00,,,0.00,Wunderground v.1.15,2013-03-21 06:30:00,
2013-03-21 02:40:00,16.8,11.4,30.00,WSW,250,2.0,2.0,79,0.00,,,0.00,Wunderground v.1.15,2013-03-21 06:40:00,
2013-03-21 02:45:00,16.7,11.3,30.00,WSW,253,2.0,2.0,79,0.00,,,0.00,Wunderground v.1.15,2013-03-21 06:45:00,
2013-03-21 02:55:00,16.6,11.2,30.00,West,262,2.0,5.0,79,0.00,,,0.00,Wunderground v.1.15,2013-03-21 06:55:00,
2013-03-21 03:01:00,16.6,11.2,30.00,West,269,2.0,2.0,79,0.00,,,0.00,Wunderground v.1.15,2013-03-21 07:01:00,
2013-03-21 03:10:00,16.5,11.4,29.99,SSW,209,2.0,2.0,80,0.00,,,0.00,Wunderground v.1.15,2013-03-21 07:10:00,
2013-03-21 03:15:00,16.4,11.3,29.99,WSW,245,2.0,2.0,80,0.00,,,0.00,Wunderground v.1.15,2013-03-21 07:15:00,
2013-03-21 03:25:00,16.3,11.2,29.99,West,270,2.0,3.0,80,0.00,,,0.00,Wunderground v.1.15,2013-03-21 07:25:00,
2013-03-21 03:30:00,16.3,11.2,29.99,SW,233,2.0,2.0,80,0.00,,,0.00,Wunderground v.1.15,2013-03-21 07:30:00,
2013-03-21 03:40:00,16.2,11.1,29.99,WSW,257,2.0,2.0,80,0.00,,,0.00,Wunderground v.1.15,2013-03-21 07:40:00,
2013-03-21 03:50:00,16.2,11.4,29.99,WSW,240,2.0,2.0,81,0.00,,,0.00,Wunderground v.1.15,2013-03-21 07:50:00,
2013-03-21 03:55:00,16.1,11.3,29.99,WSW,258,2.0,4.0,81,0.00,,,0.00,Wunderground v.1.15,2013-03-21 07:55:00,
2013-03-21 04:00:00,16.2,11.4,29.99,SW,223,2.0,2.0,81,0.00,,,0.00,Wunderground v.1.15,2013-03-21 08:00:00,
2013-03-21 04:10:00,16.2,11.4,29.99,WSW,241,2.0,4.0,81,0.00,,,0.00,Wunderground v.1.15,2013-03-21 08:10:00,
2013-03-21 04:20:00,16.2,11.7,29.98,WSW,257,2.0,2.0,82,0.00,,,0.00,Wunderground v.1.15,2013-03-21 08:20:00,
2013-03-21 04:30:00,16.0,11.5,29.98,WSW,237,2.0,2.0,82,0.00,,,0.00,Wunderground v.1.15,2013-03-21 08:30:00,
2013-03-21 04:35:00,16.0,11.5,29.98,WSW,241,2.0,2.0,82,0.00,,,0.00,Wunderground v.1.15,2013-03-21 08:35:00,
2013-03-21 04:45:00,16.0,11.7,29.98,West,259,2.0,3.0,83,0.00,,,0.00,Wunderground v.1.15,2013-03-21 08:45:00,
2013-03-21 04:50:00,16.0,11.7,29.98,WSW,254,2.0,3.0,83,0.00,,,0.00,Wunderground v.1.15,2013-03-21 08:50:00,
2013-03-21 05:00:00,16.2,11.9,29.97,SW,229,2.0,2.0,83,0.00,,,0.00,Wunderground v.1.15,2013-03-21 09:00:00,
2013-03-21 05:05:00,16.4,12.1,29.97,WSW,250,3.0,3.0,83,0.00,,,0.00,Wunderground v.1.15,2013-03-21 09:05:00,
2013-03-21 05:15:00,16.6,12.3,29.97,WSW,246,3.0,3.0,83,0.00,,,0.00,Wunderground v.1.15,2013-03-21 09:15:00,
2013-03-21 05:20:00,16.7,12.4,29.97,WSW,254,3.0,3.0,83,0.00,,,0.00,Wunderground v.1.15,2013-03-21 09:20:00,
2013-03-21 05:30:00,16.9,12.6,29.97,WSW,241,3.0,3.0,83,0.00,,,0.00,Wunderground v.1.15,2013-03-21 09:30:00,
2013-03-21 05:40:00,17.0,12.7,29.97,SW,234,3.0,4.0,83,0.00,,,0.00,Wunderground v.1.15,2013-03-21 09:40:00,
2013-03-21 05:45:00,17.1,12.8,29.97,SW,227,3.0,4.0,83,0.00,,,0.00,Wunderground v.1.15,2013-03-21 09:45:00,
2013-03-21 05:55:00,17.1,12.8,29.97,WSW,257,3.0,3.0,83,0.00,,,0.00,Wunderground v.1.15,2013-03-21 09:55:00,
2013-03-21 06:01:00,17.2,12.9,29.97,SW,229,3.0,5.0,83,0.00,,,0.00,Wunderground v.1.15,2013-03-21 10:01:00,
2013-03-21 06:10:00,17.2,12.9,29.96,SW,235,3.0,3.0,83,0.00,,,0.00,Wunderground v.1.15,2013-03-21 10:10:00,
2013-03-21 06:15:00,17.2,12.9,29.96,WSW,238,3.0,3.0,83,0.00,,,0.00,Wunderground v.1.15,2013-03-21 10:15:00,
2013-03-21 06:25:00,17.3,13.0,29.96,SW,229,3.0,5.0,83,0.00,,,0.00,Wunderground v.1.15,2013-03-21 10:25:00,
2013-03-21 06:35:00,17.4,13.1,29.96,West,260,4.0,5.0,83,0.00,,,0.00,Wunderground v.1.15,2013-03-21 10:35:00,
2013-03-21 06:45:00,17.5,13.2,29.96,WSW,252,4.0,7.0,83,0.00,,,0.00,Wunderground v.1.15,2013-03-21 10:45:00,
2013-03-21 06:55:00,17.6,13.3,29.96,WSW,246,4.0,5.0,83,0.00,,,0.00,Wunderground v.1.15,2013-03-21 10:55:00,
2013-03-21 07:01:00,17.6,13.3,29.96,West,269,4.0,4.0,83,0.00,,,0.00,Wunderground v.1.15,2013-03-21 11:01:00,
2013-03-21 07:10:00,17.5,13.2,29.96,WSW,252,4.0,4.0,83,0.00,,,0.00,Wunderground v.1.15,2013-03-21 11:10:00,
2013-03-21 07:20:00,17.5,13.2,29.96,West,263,5.0,5.0,83,0.00,,,0.00,Wunderground v.1.15,2013-03-21 11:20:00,
2013-03-21 07:30:00,17.3,13.0,29.96,West,270,4.0,4.0,83,0.00,,,0.00,Wunderground v.1.15,2013-03-21 11:30:00,
2013-03-21 07:40:00,17.2,13.2,29.96,WSW,242,3.0,3.0,84,0.00,,,0.00,Wunderground v.1.15,2013-03-21 11:40:00,
2013-03-21 07:45:00,17.3,13.3,29.96,WNW,283,3.0,4.0,84,0.00,,,0.00,Wunderground v.1.15,2013-03-21 11:45:00,
2013-03-21 07:55:00,17.3,13.3,29.96,West,266,4.0,4.0,84,0.00,,,0.00,Wunderground v.1.15,2013-03-21 11:55:00,
2013-03-21 08:01:00,17.4,13.4,29.96,WSW,255,3.0,3.0,84,0.00,,,0.00,Wunderground v.1.15,2013-03-21 12:01:00,
2013-03-21 08:10:00,17.8,13.5,29.96,West,274,3.0,3.0,83,0.00,,,0.00,Wunderground v.1.15,2013-03-21 12:10:00,
2013-03-21 08:20:00,18.3,13.7,29.96,WSW,248,4.0,4.0,82,0.00,,,0.00,Wunderground v.1.15,2013-03-21 12:20:00,
2013-03-21 08:30:00,18.7,14.1,29.96,West,265,4.0,4.0,82,0.00,,,0.00,Wunderground v.1.15,2013-03-21 12:30:00,
2013-03-21 08:35:00,19.1,14.5,29.96,WSW,250,4.0,4.0,82,0.00,,,0.00,Wunderground v.1.15,2013-03-21 12:35:00,
2013-03-21 08:45:00,19.5,14.6,29.95,SW,221,4.0,6.0,81,0.00,,,0.00,Wunderground v.1.15,2013-03-21 12:45:00,
2013-03-21 08:50:00,19.5,14.6,29.95,WSW,249,5.0,6.0,81,0.00,,,0.00,Wunderground v.1.15,2013-03-21 12:50:00,
2013-03-21 09:00:00,20.1,15.2,29.95,SW,234,4.0,7.0,81,0.00,,,0.00,Wunderground v.1.15,2013-03-21 13:00:00,
2013-03-21 09:05:00,20.2,15.0,29.95,SW,234,5.0,7.0,80,0.00,,,0.00,Wunderground v.1.15,2013-03-21 13:05:00,
2013-03-21 09:15:00,20.9,15.7,29.95,WNW,294,5.0,6.0,80,0.00,,,0.00,Wunderground v.1.15,2013-03-21 13:15:00,
2013-03-21 09:25:00,21.4,16.2,29.95,WSW,244,5.0,9.0,80,0.00,,,0.00,Wunderground v.1.15,2013-03-21 13:25:00,
2013-03-21 09:36:00,21.8,16.6,29.95,West,259,6.0,8.0,80,0.00,,,0.00,Wunderground v.1.15,2013-03-21 13:36:00,
2013-03-21 09:45:00,22.2,16.7,29.95,West,269,5.0,5.0,79,0.00,,,0.00,Wunderground v.1.15,2013-03-21 13:45:00,
2013-03-21 09:56:00,22.1,16.6,29.95,WSW,258,6.0,6.0,79,0.00,,,0.00,Wunderground v.1.15,2013-03-21 13:56:00,
2013-03-21 10:01:00,22.4,16.9,29.95,WNW,300,5.0,5.0,79,0.00,,,0.00,Wunderground v.1.15,2013-03-21 14:01:00,
2013-03-21 10:10:00,23.3,17.5,29.96,West,274,5.0,5.0,78,0.00,,,0.00,Wunderground v.1.15,2013-03-21 14:10:00,
2013-03-21 10:20:00,23.5,17.3,29.96,West,261,5.0,10.0,77,0.00,,,0.00,Wunderground v.1.15,2013-03-21 14:20:00,
2013-03-21 10:25:00,23.8,17.6,29.96,WSW,238,6.0,10.0,77,0.00,,,0.00,Wunderground v.1.15,2013-03-21 14:25:00,
2013-03-21 10:35:00,24.0,17.8,29.96,WSW,255,5.0,7.0,77,0.00,,,0.00,Wunderground v.1.15,2013-03-21 14:35:00,
2013-03-21 10:40:00,24.3,18.1,29.96,West,263,5.0,5.0,77,0.00,,,0.00,Wunderground v.1.15,2013-03-21 14:40:00,
2013-03-21 10:51:00,24.3,18.4,29.96,SW,222,5.0,5.0,78,0.00,,,0.00,Wunderground v.1.15,2013-03-21 14:51:00,
2013-03-21 11:01:00,24.0,18.1,29.96,WSW,254,6.0,9.0,78,0.00,,,0.00,Wunderground v.1.15,2013-03-21 15:01:00,
2013-03-21 11:10:00,24.4,19.1,29.96,West,267,5.0,5.0,80,0.00,,,0.00,Wunderground v.1.15,2013-03-21 15:10:00,
2013-03-21 11:20:00,25.0,20.3,29.97,WSW,251,4.0,4.0,82,0.00,,,0.00,Wunderground v.1.15,2013-03-21 15:20:00,
2013-03-21 11:26:00,25.0,19.7,29.97,WNW,294,4.0,5.0,80,0.00,,,0.00,Wunderground v.1.15,2013-03-21 15:26:00,
2013-03-21 11:35:00,25.2,19.6,29.97,WSW,258,5.0,5.0,79,0.00,,,0.00,Wunderground v.1.15,2013-03-21 15:35:00,
2013-03-21 11:40:00,25.8,20.8,29.97,SSW,212,4.0,5.0,81,0.00,,,0.00,Wunderground v.1.15,2013-03-21 15:40:00,
2013-03-21 11:50:00,26.3,19.8,29.97,WNW,283,6.0,6.0,76,0.00,,,0.00,Wunderground v.1.15,2013-03-21 15:50:00,
2013-03-21 11:55:00,26.5,20.3,29.97,SW,232,5.0,6.0,77,0.00,,,0.00,Wunderground v.1.15,2013-03-21 15:55:00,
2013-03-21 12:01:00,26.6,20.1,29.97,West,260,5.0,5.0,76,0.00,,,0.00,Wunderground v.1.15,2013-03-21 16:01:00,
2013-03-21 12:10:00,26.9,20.3,29.97,SW,233,5.0,5.0,76,0.00,,,0.00,Wunderground v.1.15,2013-03-21 16:10:00,
2013-03-21 12:15:00,27.0,20.4,29.97,WNW,288,5.0,5.0,76,0.00,,,0.00,Wunderground v.1.15,2013-03-21 16:15:00,
2013-03-21 12:25:00,27.5,21.2,29.97,NW,311,5.0,5.0,77,0.00,,,0.00,Wunderground v.1.15,2013-03-21 16:25:00,
2013-03-21 12:35:00,27.8,21.2,29.97,WNW,294,6.0,6.0,76,0.00,,,0.00,Wunderground v.1.15,2013-03-21 16:35:00,
2013-03-21 12:40:00,28.5,21.6,29.97,NW,304,6.0,7.0,75,0.00,,,0.00,Wunderground v.1.15,2013-03-21 16:40:00,
2013-03-21 12:50:00,29.1,21.5,29.96,NW,307,5.0,6.0,73,0.00,,,0.00,Wunderground v.1.15,2013-03-21 16:50:00,
2013-03-21 12:55:00,28.9,21.0,29.97,West,280,5.0,6.0,72,0.00,,,0.00,Wunderground v.1.15,2013-03-21 16:55:00,
2013-03-21 13:01:00,29.3,21.1,29.96,WSW,255,5.0,5.0,71,0.00,,,0.00,Wunderground v.1.15,2013-03-21 17:01:00,
2013-03-21 13:11:00,29.6,21.3,29.96,WNW,291,4.0,6.0,71,0.00,,,0.00,Wunderground v.1.15,2013-03-21 17:11:00,
2013-03-21 13:20:00,29.8,21.9,29.96,NW,309,5.0,5.0,72,0.00,,,0.00,Wunderground v.1.15,2013-03-21 17:20:00,
2013-03-21 13:25:00,29.7,21.8,29.96,WSW,245,5.0,5.0,72,0.00,,,0.00,Wunderground v.1.15,2013-03-21 17:25:00,
2013-03-21 13:35:00,29.9,21.3,29.96,NW,304,5.0,5.0,70,0.00,,,0.00,Wunderground v.1.15,2013-03-21 17:35:00,
2013-03-21 13:40:00,29.7,21.8,29.96,West,262,5.0,9.0,72,0.00,,,0.00,Wunderground v.1.15,2013-03-21 17:40:00,
2013-03-21 13:50:00,30.2,21.9,29.96,West,264,6.0,6.0,71,0.00,,,0.00,Wunderground v.1.15,2013-03-21 17:50:00,
2013-03-21 13:55:00,30.5,22.2,29.95,SW,223,5.0,6.0,71,0.00,,,0.00,Wunderground v.1.15,2013-03-21 17:55:00,
2013-03-21 14:01:00,30.4,22.1,29.96,WSW,255,5.0,5.0,71,0.00,,,0.00,Wunderground v.1.15,2013-03-21 18:01:00,
2013-03-21 14:10:00,30.6,22.0,29.96,WNW,298,5.0,6.0,70,0.00,,,0.00,Wunderground v.1.15,2013-03-21 18:10:00,
2013-03-21 14:20:00,30.4,21.4,29.96,SW,231,6.0,6.0,69,0.00,,,0.00,Wunderground v.1.15,2013-03-21 18:20:00,
2013-03-21 14:25:00,30.2,20.9,29.96,West,265,7.0,7.0,68,0.00,,,0.00,Wunderground v.1.15,2013-03-21 18:25:00,
2013-03-21 14:35:00,30.2,21.6,29.95,West,263,5.0,8.0,70,0.00,,,0.00,Wunderground v.1.15,2013-03-21 18:35:00,
2013-03-21 14:45:00,30.3,20.3,29.95,West,263,5.0,7.0,66,0.00,,,0.00,Wunderground v.1.15,2013-03-21 18:45:00,
2013-03-21 14:51:00,30.3,21.0,29.95,West,261,6.0,7.0,68,0.00,,,0.00,Wunderground v.1.15,2013-03-21 18:51:00,
2013-03-21 15:00:00,30.5,20.5,29.95,West,259,5.0,5.0,66,0.00,,,0.00,Wunderground v.1.15,2013-03-21 19:00:00,
2013-03-21 15:05:00,30.6,20.2,29.95,West,277,5.0,5.0,65,0.00,,,0.00,Wunderground v.1.15,2013-03-21 19:05:00,
2013-03-21 15:16:00,30.7,20.7,29.95,West,270,5.0,6.0,66,0.00,,,0.00,Wunderground v.1.15,2013-03-21 19:16:00,
2013-03-21 15:25:00,30.8,20.0,29.95,West,266,5.0,5.0,64,0.00,,,0.00,Wunderground v.1.15,2013-03-21 19:25:00,
2013-03-21 15:31:00,31.0,20.2,29.95,SW,229,5.0,7.0,64,0.00,,,0.00,Wunderground v.1.15,2013-03-21 19:31:00,
2013-03-21 15:40:00,31.0,20.2,29.95,SW,231,5.0,6.0,64,0.00,,,0.00,Wunderground v.1.15,2013-03-21 19:40:00,
2013-03-21 15:45:00,31.1,20.0,29.95,WNW,298,6.0,8.0,63,0.00,,,0.00,Wunderground v.1.15,2013-03-21 19:45:00,
2013-03-21 15:55:00,31.0,19.5,29.95,West,279,6.0,6.0,62,0.00,,,0.00,Wunderground v.1.15,2013-03-21 19:55:00,
2013-03-21 16:01:00,31.1,20.0,29.95,West,269,4.0,4.0,63,0.00,,,0.00,Wunderground v.1.15,2013-03-21 20:01:00,
2013-03-21 16:10:00,31.0,19.5,29.96,WNW,283,6.0,8.0,62,0.00,,,0.00,Wunderground v.1.15,2013-03-21 20:10:00,
2013-03-21 16:16:00,31.1,19.6,29.95,WSW,250,6.0,13.0,62,0.00,,,0.00,Wunderground v.1.15,2013-03-21 20:16:00,
2013-03-21 16:20:00,31.1,20.0,29.96,WSW,250,7.0,9.0,63,0.00,,,0.00,Wunderground v.1.15,2013-03-21 20:20:00,
2013-03-21 16:31:00,30.9,20.9,29.96,WNW,295,7.0,7.0,66,0.00,,,0.00,Wunderground v.1.15,2013-03-21 20:31:00,
2013-03-21 16:40:00,30.9,21.2,29.96,WNW,288,5.0,5.0,67,0.00,,,0.00,Wunderground v.1.15,2013-03-21 20:40:00,
2013-03-21 16:46:00,31.1,21.1,29.96,SW,236,4.0,6.0,66,0.00,,,0.00,Wunderground v.1.15,2013-03-21 20:46:00,
2013-03-21 16:55:00,30.9,21.2,29.96,WSW,256,6.0,7.0,67,0.00,,,0.00,Wunderground v.1.15,2013-03-21 20:55:00,
2013-03-21 17:05:00,31.4,21.3,29.96,West,262,4.0,8.0,66,0.00,,,0.00,Wunderground v.1.15,2013-03-21 21:05:00,
2013-03-21 17:15:00,31.8,21.4,29.96,NNW,327,4.0,5.0,65,0.00,,,0.00,Wunderground v.1.15,2013-03-21 21:15:00,
2013-03-21 17:26:00,31.7,21.3,29.96,SW,231,5.0,7.0,65,0.00,,,0.00,Wunderground v.1.15,2013-03-21 21:26:00,
2013-03-21 17:36:00,31.5,21.1,29.96,SW,236,5.0,5.0,65,0.00,,,0.00,Wunderground v.1.15,2013-03-21 21:36:00,
2013-03-21 17:45:00,31.4,21.3,29.96,NW,306,5.0,7.0,66,0.00,,,0.00,Wunderground v.1.15,2013-03-21 21:45:00,
2013-03-21 17:55:00,31.2,21.2,29.96,West,274,6.0,10.0,66,0.00,,,0.00,Wunderground v.1.15,2013-03-21 21:55:00,
2013-03-21 18:01:00,31.2,21.2,29.96,NW,313,5.0,5.0,66,0.00,,,0.00,Wunderground v.1.15,2013-03-21 22:01:00,
2013-03-21 18:10:00,31.4,21.7,29.97,WNW,288,4.0,4.0,67,0.00,,,0.00,Wunderground v.1.15,2013-03-21 22:10:00,
2013-03-21 18:21:00,31.4,21.3,29.97,WNW,282,4.0,4.0,66,0.00,,,0.00,Wunderground v.1.15,2013-03-21 22:21:00,
2013-03-21 18:30:00,31.5,21.4,29.97,West,271,3.0,3.0,66,0.00,,,0.00,Wunderground v.1.15,2013-03-21 22:30:00,
2013-03-21 18:35:00,31.5,21.4,29.97,West,264,3.0,3.0,66,0.00,,,0.00,Wunderground v.1.15,2013-03-21 22:35:00,
2013-03-21 18:46:00,31.4,21.0,29.97,WNW,301,3.0,5.0,65,0.00,,,0.00,Wunderground v.1.15,2013-03-21 22:46:00,
2013-03-21 18:55:00,31.5,21.1,29.97,WNW,295,4.0,8.0,65,0.00,,,0.00,Wunderground v.1.15,2013-03-21 22:55:00,
2013-03-21 19:05:00,31.4,21.3,29.97,WNW,297,3.0,4.0,66,0.00,,,0.00,Wunderground v.1.15,2013-03-21 23:05:00,
2013-03-21 19:16:00,31.4,21.0,29.97,WNW,293,4.0,7.0,65,0.00,,,0.00,Wunderground v.1.15,2013-03-21 23:16:00,
2013-03-21 19:25:00,31.1,22.1,29.97,WNW,283,6.0,13.0,69,0.00,,,0.00,Wunderground v.1.15,2013-03-21 23:25:00,
2013-03-21 19:31:00,30.8,22.5,29.98,WSW,258,7.0,7.0,71,0.00,,,0.00,Wunderground v.1.15,2013-03-21 23:31:00,
2013-03-21 19:41:00,30.6,22.3,29.98,WNW,283,5.0,7.0,71,0.00,,,0.00,Wunderground v.1.15,2013-03-21 23:41:00,
2013-03-21 19:50:00,30.6,22.3,29.98,West,259,4.0,7.0,71,0.00,,,0.00,Wunderground v.1.15,2013-03-21 23:50:00,
2013-03-21 19:56:00,30.5,22.5,29.98,West,260,5.0,7.0,72,0.00,,,0.00,Wunderground v.1.15,2013-03-21 23:56:00,
2013-03-21 20:01:00,30.5,23.2,29.98,West,261,5.0,5.0,74,0.00,,,0.00,Wunderground v.1.15,2013-03-22 00:01:00,
2013-03-21 20:11:00,30.1,23.1,29.98,WNW,288,5.0,5.0,75,0.00,,,0.00,Wunderground v.1.15,2013-03-22 00:11:00,
2013-03-21 20:21:00,30.0,23.0,29.98,WSW,247,4.0,6.0,75,0.00,,,0.00,Wunderground v.1.15,2013-03-22 00:21:00,
2013-03-21 20:30:00,30.0,22.7,29.98,West,270,5.0,6.0,74,0.00,,,0.00,Wunderground v.1.15,2013-03-22 00:30:00,
2013-03-21 20:36:00,30.0,22.7,29.98,West,265,5.0,6.0,74,0.00,,,0.00,Wunderground v.1.15,2013-03-22 00:36:00,
2013-03-21 20:46:00,29.9,22.6,29.98,WSW,256,6.0,9.0,74,0.00,,,0.00,Wunderground v.1.15,2013-03-22 00:46:00,
2013-03-21 20:56:00,29.8,22.5,29.99,WSW,258,5.0,6.0,74,0.00,,,0.00,Wunderground v.1.15,2013-03-22 00:56:00,
2013-03-21 21:01:00,29.7,22.4,29.99,West,264,5.0,8.0,74,0.00,,,0.00,Wunderground v.1.15,2013-03-22 01:01:00,
2013-03-21 21:10:00,29.6,22.3,29.99,WNW,297,5.0,5.0,74,0.00,,,0.00,Wunderground v.1.15,2013-03-22 01:10:00,
2013-03-21 21:16:00,29.6,22.3,29.99,WSW,255,5.0,5.0,74,0.00,,,0.00,Wunderground v.1.15,2013-03-22 01:16:00,
2013-03-21 21:26:00,29.5,22.2,29.99,West,260,5.0,5.0,74,0.00,,,0.00,Wunderground v.1.15,2013-03-22 01:26:00,
2013-03-21 21:35:00,29.4,22.1,30.00,WSW,258,6.0,9.0,74,0.00,,,0.00,Wunderground v.1.15,2013-03-22 01:35:00,
2013-03-21 21:41:00,29.3,22.0,29.99,West,280,6.0,6.0,74,0.00,,,0.00,Wunderground v.1.15,2013-03-22 01:41:00,
2013-03-21 21:51:00,29.2,21.9,29.99,WSW,257,4.0,4.0,74,0.00,,,0.00,Wunderground v.1.15,2013-03-22 01:51:00,
2013-03-21 22:01:00,29.1,22.2,30.00,West,259,4.0,8.0,75,0.00,,,0.00,Wunderground v.1.15,2013-03-22 02:01:00,
2013-03-21 22:06:00,29.0,22.4,30.00,WNW,287,4.0,8.0,76,0.00,,,0.00,Wunderground v.1.15,2013-03-22 02:06:00,
2013-03-21 22:15:00,28.9,21.3,30.00,West,266,5.0,8.0,73,0.00,,,0.00,Wunderground v.1.15,2013-03-22 02:15:00,
2013-03-21 22:21:00,28.8,21.6,30.00,WSW,255,5.0,5.0,74,0.00,,,0.00,Wunderground v.1.15,2013-03-22 02:21:00,
2013-03-21 22:30:00,28.9,21.3,30.00,WSW,255,4.0,7.0,73,0.00,,,0.00,Wunderground v.1.15,2013-03-22 02:30:00,
2013-03-21 22:36:00,28.8,21.2,30.00,SSW,210,4.0,7.0,73,0.00,,,0.00,Wunderground v.1.15,2013-03-22 02:36:00,
2013-03-21 22:45:00,28.8,21.2,30.01,West,276,4.0,4.0,73,0.00,,,0.00,Wunderground v.1.15,2013-03-22 02:45:00,
2013-03-21 22:51:00,28.8,21.2,30.01,WNW,300,4.0,7.0,73,0.00,,,0.00,Wunderground v.1.15,2013-03-22 02:51:00,
2013-03-21 23:01:00,28.8,21.6,30.01,WNW,291,3.0,3.0,74,0.00,,,0.00,Wunderground v.1.15,2013-03-22 03:01:00,
2013-03-21 23:06:00,28.7,21.5,30.01,West,262,3.0,3.0,74,0.00,,,0.00,Wunderground v.1.15,2013-03-22 03:06:00,
2013-03-21 23:16:00,28.7,21.5,30.01,WNW,283,3.0,4.0,74,0.00,,,0.00,Wunderground v.1.15,2013-03-22 03:16:00,
2013-03-21 23:25:00,28.6,21.0,30.01,WNW,294,4.0,5.0,73,0.00,,,0.00,Wunderground v.1.15,2013-03-22 03:25:00,
2013-03-21 23:31:00,28.5,20.6,30.01,West,277,5.0,5.0,72,0.00,,,0.00,Wunderground v.1.15,2013-03-22 03:31:00,
2013-03-21 23:41:00,28.4,20.2,30.01,SW,224,4.0,4.0,71,0.00,,,0.00,Wunderground v.1.15,2013-03-22 03:41:00,
2013-03-21 23:50:00,28.3,20.4,30.01,West,271,4.0,4.0,72,0.00,,,0.00,Wunderground v.1.15,2013-03-22 03:50:00,
2013-03-21 23:56:00,28.2,20.3,30.01,WSW,248,4.0,4.0,72,0.00,,,0.00,Wunderground v.1.15,2013-03-22 03:56:00,